sat.trackr.live / text

‹ back to catalog

STARLINK-3323

NORAD 50804 · 2022-001B

PAYLOAD ACTIVE UNKNOWN

§ Identity

Operator
Country
US
Launch date
2022-01-06
Launch site
AFETR
Launch vehicle
Mass (kg)
RCS (m²)

Purposes: comms

External: N2YO · Heavens-Above · Gunter

§ Orbital elements

Epoch: 2026-05-24T12:48:41.100192Z

Period
95.44 min
Inclination
53.2136°
Eccentricity
0.0000823
Mean motion
15.08837539 rev/d
Perigee alt
539.2 km
Apogee alt
540.3 km
Semi-major
6,917.9 km
B*
8.9329e-6
RAAN
178.6449°
Arg perigee
81.4950°
Mean anomaly
278.6136°
Rev number
24,199

§ Raw data

STARLINK-33231 50804U 22001B   26144.53380903 -.00000146  00000+0  89329-5 0  99972 50804  53.2136 178.6449 0000823  81.4950 278.6136 15.08837539241995

JSON: /api/v1/satellites/50804 · /tle

For live sub-satellite position, see the globe view (requires WebGL).

§ Visibility from observer

Set your observer location to see the next 7 days of passes ≥ 10°. The values pass through the URL so the page stays shareable.

No JS? Fill the form by hand. The geolocation button needs JavaScript.